Lapse_Rate
2.5 2.5 2.3 2.4 2.3 2.1 2.7 3.5 3.8 4.1 4.4 4.8 5.0 5.1 5.2 5.3 5.9 9.5 8.6 9.7 9.5 7.3 6.0 7.6 8.7 8.6 8.5 8.3 8.4 8.2 6.5 6.5 6.5 6.5 6.5 7.3 6.6 7.8 8.3 7.7 8.0 8.3 8.2 8.7 9.2
2.6 2.4 2.3 2.3 2.3 2.2 2.4 3.0 3.5 4.2 4.5 4.5 5.0 5.0 5.1 5.0 8.2 8.8 9.3 7.4 6.4 6.1 7.2 7.5 8.2 8.5 7.9 7.7 7.8 6.8 6.5 6.5 6.5 6.6 6.5 7.0 7.0 7.3 7.0 7.2 7.2 7.5 8.5 8.9 9.1
2.5 2.4 2.4 2.3 2.3 2.2 2.5 3.0 3.3 4.1 4.6 4.4 4.8 4.8 4.7 5.9 8.4 8.5 6.9 6.3 6.3 6.1 7.0 7.3 8.4 8.3 7.2 7.6 7.3 6.9 6.5 6.5 6.8 7.3 7.4 6.9 6.9 7.4 6.8 6.5 6.9 7.0 7.5 8.5 8.7
2.3 2.3 2.2 2.2 2.2 2.1 2.3 3.0 3.2 4.0 4.6 4.5 4.6 4.5 4.3 6.6 6.5 8.8 6.2 5.7 6.0 7.1 8.2 8.6 8.4 7.4 6.7 6.5 7.4 6.5 6.9 7.0 7.1 7.5 7.2 6.6 7.3 6.8 7.0 7.1 7.9 8.0 8.5 8.5 8.4
2.2 2.1 2.2 2.1 2.1 2.0 2.1 3.0 3.2 3.6 4.2 4.4 4.6 4.3 6.4 8.1 8.0 7.3 5.4 5.2 6.8 7.5 7.8 8.2 7.9 7.5 6.5 6.8 7.0 6.5 6.6 7.2 7.5 7.4 7.4 7.3 6.9 6.8 7.2 8.1 8.1 8.3 8.4 8.2 8.3
2.4 2.1 1.9 1.9 1.9 2.0 2.1 2.8 3.2 3.3 3.6 4.1 4.7 4.6 7.1 6.9 7.8 6.7 4.7 6.3 6.5 7.5 8.0 8.6 8.1 8.2 7.2 6.9 6.6 7.2 7.0 7.0 7.2 7.2 7.3 6.6 6.8 7.2 7.6 8.2 7.7 7.8 8.1 8.1 7.8
2.4 2.2 1.9 1.8 2.0 2.0 2.1 2.7 3.4 3.5 3.5 3.9 4.5 6.2 7.5 7.3 7.1 6.2 5.1 5.0 5.1 6.2 8.1 8.1 8.2 8.0 7.9 6.5 7.7 7.2 6.5 6.5 6.7 7.1 6.6 7.3 6.5 6.5 7.7 8.1 7.5 7.3 7.8 7.9 7.3
2.1 2.0 1.7 1.6 1.7 1.7 1.7 2.5 3.3 3.7 3.9 4.1 4.2 6.5 7.5 6.9 6.9 5.8 5.9 7.1 6.7 6.7 7.0 7.9 7.8 8.2 7.7 7.9 7.0 6.5 6.5 6.5 6.5 6.7 6.9 6.8 6.5 6.5 7.8 7.6 7.2 7.4 7.7 7.8 5.9
2.0 1.7 1.5 1.7 1.8 1.7 1.7 2.8 3.4 4.3 4.6 4.5 6.3 7.0 7.4 6.9 6.5 6.9 5.4 5.8 6.8 7.5 7.9 8.0 8.2 7.6 7.5 6.5 6.5 6.5 6.5 6.5 6.5 6.8 6.5 6.5 6.5 6.6 7.7 7.6 7.2 7.4 7.3 7.5 6.3
1.7 1.6 1.4 1.4 1.6 1.7 2.1 3.7 3.0 4.6 5.4 5.9 6.2 7.0 7.3 7.0 6.0 6.9 5.4 5.1 6.7 7.4 8.0 7.9 7.5 6.5 6.5 6.5 6.5 6.5 6.5 6.5 6.5 6.5 6.5 6.5 6.5 6.5 7.3 7.3 6.9 7.0 7.1 7.1 7.1
1.8 1.4 1.4 1.4 1.4 1.2 2.8 5.3 6.5 6.9 5.7 7.5 6.8 7.0 7.3 6.6 6.5 7.5 4.7 5.5 7.7 7.8 6.5 7.2 6.5 6.5 6.5 6.5 6.5 6.5 6.5 6.5 6.5 6.5 6.5 6.5 6.5 6.5 7.0 7.2 7.0 7.2 7.2 7.0 7.0
2.0 1.8 1.5 1.7 1.3 0.7 2.3 3.9 2.1 3.8 7.0 6.6 6.6 7.0 6.8 5.5 7.5 7.8 5.8 7.5 7.2 6.5 6.7 6.5 6.5 6.5 6.5 6.5 6.5 6.5 6.5 6.5 6.5 6.5 6.5 6.5 6.5 6.5 6.5 6.7 7.0 7.0 7.3 7.3 7.2
2.4 1.9 2.0 1.8 1.4 1.4 1.9 2.2 1.7 2.4 6.5 7.0 6.7 7.1 7.0 7.0 7.4 7.6 6.9 7.4 6.8 6.5 6.5 6.5 6.5 6.7 6.5 6.5 6.5 6.5 6.5 6.5 6.5 6.5 6.5 6.5 6.5 6.5 6.5 6.9 7.3 7.6 7.6 7.5 7.1
2.3 2.2 2.1 2.0 3.5 1.6 2.5 2.1 2.0 2.4 6.5 6.5 6.9 6.8 7.2 6.5 7.0 7.1 7.3 7.1 6.8 6.5 6.5 6.5 6.7 6.5 6.5 6.5 6.5 6.5 6.5 6.5 6.5 6.5 6.5 6.5 6.5 6.5 6.5 6.5 6.5 7.3 7.6 7.7 7.3
2.5 2.4 1.9 2.8 2.9 2.5 1.9 2.3 2.5 4.3 6.5 6.5 6.8 7.0 6.8 7.2 7.2 7.3 7.3 7.7 6.5 6.5 6.5 6.5 6.5 6.5 6.5 6.5 6.5 6.5 6.5 6.5 6.5 6.5 6.5 6.5 6.5 6.5 6.5 6.5 6.5 6.9 7.7 7.9 7.6
3.0 3.0 2.4 2.7 2.1 0.9 1.0 2.3 4.3 6.5 6.5 6.5 6.9 6.6 6.6 7.1 7.1 7.0 7.5 7.7 7.5 6.5 6.5 6.5 7.2 6.6 6.5 6.5 6.5 6.5 6.5 6.5 6.5 6.5 6.5 6.5 6.5 6.5 6.5 6.5 6.5 6.9 7.4 7.8 7.8
3.5 2.7 2.2 1.5 2.6 2.0 2.0 4.7 6.5 6.5 6.5 6.5 6.5 6.5 6.5 6.5 6.5 6.7 6.5 6.5 6.5 6.5 6.5 6.5 6.5 6.6 6.9 6.5 6.5 6.5 6.5 6.5 6.5 6.5 6.5 6.5 6.5 6.5 6.5 6.5 6.6 6.6 7.2 7.8 7.8
4.1 3.0 0.9 0.6 0.4 1.5 4.3 6.4 6.5 6.5 6.5 6.5 6.5 6.5 6.5 6.5 6.5 6.5 6.5 6.5 6.5 6.5 6.5 6.5 6.5 6.5 6.5 6.5 6.5 6.5 6.5 6.5 6.5 6.5 6.5 6.5 6.5 6.5 6.5 7.0 7.1 7.4 7.5 7.8 7.9
4.4 3.1 1.6 0.8 1.0 1.8 4.6 6.5 6.5 6.5 6.5 6.5 6.5 6.5 6.5 6.5 6.5 6.5 6.5 6.5 6.5 6.5 6.5 6.5 6.5 6.5 6.5 6.6 6.5 6.5 6.5 6.5 6.5 6.5 6.5 6.5 6.5 6.5 6.5 6.5 7.0 7.2 7.4 7.5 7.9
2.1 3.3 2.2 1.8 2.5 3.5 5.9 6.5 6.5 6.7 6.6 6.5 6.5 6.5 6.5 6.5 6.5 6.5 6.5 6.5 6.5 6.7 6.9 6.5 6.5 6.5 6.5 6.7 6.7 6.5 6.5 6.5 6.5 6.5 6.5 6.5 6.5 6.5 6.5 6.5 6.5 6.7 7.1 7.4 7.9
4.3 4.4 3.5 2.8 3.3 5.1 6.5 6.5 6.5 7.1 7.0 6.5 6.5 6.5 6.5 6.5 6.5 6.5 6.5 6.5 6.6 6.5 6.9 6.5 6.5 6.5 6.5 6.5 6.5 6.5 6.5 6.5 6.5 6.5 6.5 6.5 6.5 6.5 6.5 6.5 6.5 6.8 7.3 7.4 7.6
4.0 6.4 3.8 3.4 6.1 6.6 6.5 6.5 7.0 6.7 6.9 6.7 6.6 6.5 6.5 6.5 6.5 6.5 6.5 6.5 7.2 7.0 6.5 6.5 6.5 6.5 6.5 6.5 6.5 6.5 6.5 6.5 6.5 6.5 6.5 6.5 6.5 6.5 6.5 6.7 6.9 7.0 7.4 7.6 7.7
4.4 5.1 4.8 4.6 6.5 6.5 6.6 6.5 6.8 6.5 6.5 6.5 6.5 6.5 6.6 6.5 6.5 6.5 6.5 7.0 7.2 6.7 6.5 6.5 6.5 6.5 6.5 6.5 6.5 6.5 6.5 6.5 6.5 6.5 6.5 6.5 6.5 6.5 6.7 6.8 7.1 7.1 7.4 7.7 7.6
2.9 6.5 5.9 5.2 4.9 6.5 6.5 6.5 6.5 6.8 6.8 6.9 6.6 6.8 6.5 6.5 6.5 6.5 6.5 6.7 7.2 7.0 7.2 7.0 6.5 6.5 6.5 6.5 6.5 6.5 6.5 6.5 6.5 6.5 6.5 6.5 6.5 6.5 6.5 6.5 6.9 7.3 7.5 7.7 7.7
3.3 6.2 5.7 6.5 6.6 6.6 6.5 6.5 6.5 6.5 6.9 7.0 6.5 6.5 6.5 6.5 6.5 6.5 6.5 6.5 6.9 7.1 7.0 6.6 6.5 6.5 6.5 6.5 6.5 6.5 6.5 6.5 6.5 6.5 6.5 6.5 6.5 6.5 6.5 6.5 6.9 7.3 7.5 7.7 7.6
2.4 4.8 5.5 6.8 6.8 6.5 6.5 6.5 6.5 6.5 6.5 6.5 6.5 6.5 6.5 6.5 6.5 6.5 6.5 6.5 6.5 6.7 6.5 6.6 6.5 6.5 6.5 6.5 6.5 6.5 6.5 6.5 6.5 6.5 6.5 6.5 6.5 6.6 7.1 7.4 7.1 7.2 7.4 7.5 7.7
1.3 2.0 4.2 6.8 6.6 6.5 6.5 6.5 6.5 6.5 6.8 6.9 6.7 6.5 6.5 6.6 7.1 7.3 7.3 7.2 6.9 6.5 6.5 6.5 6.5 6.5 6.5 6.5 6.5 6.5 6.5 6.5 6.5 6.5 6.5 6.5 6.5 6.9 6.6 7.0 7.1 7.2 7.4 7.3 7.5
Wind_Speed
10 10 10 10 10 9 7 6 5 5 5 6 6 7 9 7 0 8 12 21 23 22 16 7 6 5 3 3 2 1 3 7 11 15 16 19 20 18 20 17 20 18 21 23 21
10 10 10 10 9 8 6 5 4 5 5 5 7 8 9 2 4 14 20 28 19 14 8 11 10 6 3 2 1 3 4 8 13 15 17 19 18 19 11 18 14 18 23 23 18
8 9 9 10 9 8 7 5 4 5 6 5 7 10 4 2 2 11 31 24 14 7 3 3 4 4 3 3 5 2 6 10 15 13 15 13 14 11 13 8 16 22 27 24 20
8 9 9 10 8 7 7 5 3 4 4 6 9 10 2 2 4 12 28 17 12 6 5 6 8 4 5 8 4 5 6 11 11 15 12 7 8 12 15 15 21 23 26 17 14
8 8 9 9 7 7 6 5 3 2 4 7 10 8 2 6 7 13 22 10 5 3 8 7 14 7 9 9 8 3 11 11 12 13 11 5 12 13 21 24 21 22 23 6 7
8 8 8 9 7 7 6 4 2 1 3 5 6 4 1 5 5 19 17 3 7 4 6 8 8 7 5 7 4 11 11 10 5 15 7 3 15 15 23 22 20 21 20 20 16
8 9 9 9 10 8 9 6 2 3 3 3 3 1 10 6 3 21 14 4 5 3 4 6 5 9 13 6 8 7 7 3 9 17 3 9 8 20 23 24 20 21 19 18 18
7 9 10 9 9 9 9 5 4 4 3 2 1 2 4 2 3 21 16 4 7 3 3 6 4 5 11 11 1 7 2 7 9 15 10 4 9 20 22 23 22 21 20 19 21
6 7 9 10 11 11 7 1 1 3 4 1 2 0 4 1 6 15 8 6 5 2 6 6 4 3 11 11 2 2 7 10 5 14 6 10 8 16 22 24 22 20 19 20 18
5 7 9 9 10 11 4 1 6 2 3 0 1 4 3 6 6 14 7 8 4 2 0 6 4 10 12 10 7 14 9 9 10 1 6 13 18 17 21 23 20 20 20 18 18
5 5 7 7 8 8 2 2 2 2 8 6 3 3 2 5 1 16 8 7 1 5 4 5 10 15 16 10 10 12 10 12 10 0 6 3 17 18 21 23 24 24 22 19 19
5 8 7 8 2 2 2 2 2 2 6 4 3 3 3 2 4 20 13 2 6 6 9 1 13 14 12 5 15 5 8 9 2 2 5 4 6 13 21 20 20 19 23 25 26
5 7 8 4 2 4 6 2 3 2 3 2 3 3 3 3 6 13 11 3 7 5 6 12 9 12 10 9 17 7 8 14 8 8 5 13 4 17 19 19 23 24 22 22 22
3 4 8 2 1 1 3 2 2 2 2 2 0 4 4 1 4 5 9 3 4 5 3 3 10 11 16 11 14 7 13 13 8 5 5 11 3 16 21 22 25 27 26 25 25
1 0 8 4 5 2 2 4 3 2 2 3 2 3 5 5 5 10 6 2 5 5 4 5 12 11 14 13 12 7 20 8 2 3 7 11 5 10 23 30 33 30 29 27 23
1 3 2 4 3 1 2 4 3 3 5 3 1 3 2 7 4 6 8 6 2 3 4 3 3 4 9 16 5 18 5 4 1 0 1 10 6 12 17 23 27 25 27 27 25
10 10 5 3 3 2 1 2 2 3 2 2 1 3 6 6 4 9 5 14 7 4 8 5 4 3 12 15 6 21 6 1 1 3 3 7 5 3 15 20 21 22 25 25 24
10 10 13 9 6 6 1 2 2 1 2 1 2 5 3 3 4 6 2 5 10 5 3 6 1 10 13 9 10 10 7 4 3 4 4 4 6 4 15 19 17 17 19 24 23
13 3 3 6 9 4 4 1 3 2 2 6 3 2 3 2 1 2 6 3 5 5 3 4 1 3 4 5 12 6 6 3 3 2 3 3 3 4 18 22 24 22 23 23 24
3 2 2 9 8 1 4 5 2 0 1 2 3 2 3 1 2 2 1 0 0 3 0 2 2 3 4 3 7 7 5 2 1 5 4 2 2 7 20 24 24 23 22 23 22
3 3 1 3 3 2 4 4 2 1 1 2 2 4 2 2 2 2 2 2 2 2 3 3 0 2 1 7 8 7 4 4 2 3 3 5 3 4 9 16 19 19 18 20 21
4 3 2 1 2 2 3 4 4 4 1 1 2 4 3 3 3 2 3 1 2 3 2 2 1 2 3 2 3 3 5 5 4 2 1 3 1 4 7 15 16 16 16 18 18
3 3 1 2 3 2 1 2 2 5 4 4 3 1 1 4 2 3 3 4 2 2 2 4 1 2 3 3 2 2 4 4 1 2 1 3 3 4 13 16 16 16 17 17 18
4 4 1 1 1 6 5 4 4 0 3 3 4 3 3 3 2 5 4 4 2 1 3 2 2 0 2 2 1 3 4 3 3 4 2 4 12 14 18 20 18 17 17 18 16
2 2 2 4 4 5 4 7 5 5 1 4 3 5 5 4 2 4 4 4 3 2 1 0 2 2 4 5 5 6 8 3 1 3 4 4 8 15 14 17 15 14 16 19 19
5 4 1 3 9 9 6 7 9 5 7 4 4 9 5 3 2 8 7 5 4 3 2 2 2 1 1 2 1 8 9 6 5 5 10 7 9 5 15 14 15 13 16 18 18
1 2 2 7 6 5 7 8 12 10 2 2 7 6 6 4 8 10 7 8 4 4 3 0 3 2 1 3 5 6 7 6 2 5 5 3 6 14 15 15 15 13 15 17 18
Wind_Direction
13 14 16 14 16 25 34 34 20 18 9 358 359 350 343 343 55 26 18 341 338 337 343 5 51 17 114 92 54 245 282 313 334 316 317 320 319 318 312 295 298 285 282 283 288
6 8 10 11 7 10 26 39 32 6 355 348 341 338 334 345 129 30 353 345 349 357 8 16 13 10 76 63 76 305 319 347 320 315 316 322 324 324 350 326 320 320 302 301 279
2 3 4 6 3 7 5 21 32 9 353 360 349 342 333 250 169 360 347 350 0 12 39 10 347 0 52 359 12 21 315 328 312 331 331 331 331 333 357 322 320 304 297 285 266
358 359 1 360 357 2 4 356 23 2 356 360 353 352 20 222 23 355 344 348 3 22 28 3 12 10 4 357 7 293 296 313 310 322 325 5 324 341 0 329 327 317 306 278 249
351 356 352 353 354 359 5 345 4 318 318 334 346 350 277 60 17 341 341 348 10 10 29 5 18 360 2 337 326 267 321 320 328 339 69 30 10 336 352 341 349 335 347 316 264
340 346 346 345 347 352 356 326 30 311 298 316 340 327 11 75 324 345 345 6 30 15 28 13 12 351 323 316 320 321 311 304 342 358 140 42 19 18 350 340 357 347 1 3 5
333 337 341 342 337 340 334 296 278 291 316 323 355 106 72 78 9 357 360 17 357 7 26 16 358 18 329 329 332 302 326 134 21 355 21 331 16 5 355 348 360 355 2 356 355
330 333 336 333 334 331 332 281 256 279 279 258 59 188 88 152 343 9 360 36 41 76 346 3 9 346 4 314 273 337 259 345 17 2 15 317 359 1 0 359 357 359 360 359 351
318 327 331 329 333 333 338 23 262 78 99 185 207 245 77 29 357 356 11 359 325 62 40 48 39 11 1 359 346 351 324 345 359 20 59 47 3 355 8 3 2 0 360 357 344
306 322 327 327 330 333 347 166 72 147 50 25 90 139 57 352 324 350 6 358 17 305 152 29 35 14 13 8 4 321 327 337 339 27 12 39 37 14 10 7 3 1 1 358 348
291 312 320 326 332 342 102 180 215 155 46 54 51 67 34 349 315 9 351 323 344 62 26 46 27 12 348 345 319 296 291 317 340 56 302 15 28 15 4 4 5 5 359 357 351
310 320 323 321 41 53 84 66 47 49 104 40 77 74 59 349 0 8 358 56 37 52 359 127 32 354 339 348 337 305 316 348 69 190 311 336 39 25 5 10 3 1 1 358 352
303 332 319 308 126 40 73 67 321 310 90 60 41 37 5 4 44 359 7 24 42 48 26 49 353 337 351 7 360 337 355 330 300 307 222 317 209 15 4 7 358 9 4 5 0
314 349 332 144 142 127 66 298 313 303 81 120 34 20 359 52 62 11 14 3 65 39 336 32 358 350 359 19 354 303 350 312 294 313 7 14 343 28 359 1 4 3 3 359 357
196 16 42 104 119 51 59 301 281 243 301 66 67 353 40 59 323 26 11 30 65 24 291 42 355 359 358 348 330 308 324 290 309 323 313 6 297 6 358 0 359 357 353 355 353
187 186 147 52 63 57 332 301 256 49 249 116 49 11 101 30 39 316 13 54 41 28 22 23 340 330 339 323 297 323 315 222 182 42 317 345 328 32 7 351 342 344 350 349 351
99 78 66 33 99 327 86 314 12 181 60 143 105 75 89 30 35 13 40 44 35 8 14 331 43 352 358 343 353 357 355 356 145 18 0 351 16 43 2 358 349 340 343 347 351
101 82 63 56 31 323 122 12 219 78 170 122 133 100 94 11 36 20 83 61 51 24 53 7 42 5 360 18 318 344 7 21 338 339 332 7 16 33 12 0 358 347 346 350 350
121 53 49 357 355 320 97 75 274 3 88 161 145 154 114 137 136 82 45 51 23 11 37 347 188 335 13 2 355 351 28 339 315 231 266 0 103 142 355 356 357 355 349 351 350
91 81 40 341 329 330 88 237 236 82 89 259 181 317 146 108 153 77 42 356 164 37 253 122 305 11 342 298 52 33 346 251 63 345 340 49 52 355 348 350 351 350 346 345 343
89 111 32 23 316 62 154 184 165 140 27 300 144 122 91 144 89 115 150 178 229 133 118 140 306 45 239 30 4 3 11 4 315 342 335 320 75 346 348 353 345 341 340 341 340
143 146 35 23 61 351 146 158 132 162 133 156 94 98 132 154 116 130 149 111 183 175 148 84 140 351 54 13 281 351 3 14 323 20 44 296 37 28 351 357 348 337 338 338 338
119 105 110 240 163 169 123 104 184 154 185 158 123 91 136 131 121 147 138 126 174 217 203 168 103 330 159 171 150 3 10 25 271 273 34 319 46 336 358 351 354 338 338 340 338
129 130 102 66 36 134 145 194 177 198 130 114 121 116 133 114 30 149 139 170 150 140 75 127 118 345 287 333 12 291 317 12 318 280 345 254 307 333 346 342 347 341 336 338 340
121 149 204 170 195 141 145 157 141 181 218 181 135 220 159 125 112 159 147 147 174 351 78 157 188 187 275 275 245 264 281 273 288 281 267 357 295 313 338 334 336 337 336 338 342
130 146 61 85 114 119 176 194 182 168 163 200 222 158 151 148 210 185 144 192 187 122 82 324 139 172 287 136 253 280 278 254 250 256 263 277 301 333 332 333 346 349 342 338 339
170 73 125 152 139 140 192 171 193 137 209 349 162 128 134 106 92 87 87 89 121 146 127 257 138 207 148 20 318 267 227 203 257 240 259 297 333 326 327 336 339 331 344 337 336